Location: Champs
(48.8539°N, 2.6040°E)
Time: 13:41:56
(UTC+00:00)

CZ-4B R/B - Pass Details

Date: 26 October 2021
Orbit: 380 x 445 km, 97.6° (Epoch: 06 December)

Event Time Altitude Azimuth Distance (km) Brightness Sun altitude
Rises 05:37:19 0° 146° (SSE) 2,316 5.7 -8.8°
Reaches altitude 10° 05:39:21 10° 138° (SE) 1,473 4.9 -8.5°
Maximum altitude 05:42:15 35° 70° (ENE) 690 3.0 -8.0°
Drops below altitude 10° 05:45:15 10° 3° (N) 1,521 4.0 -7.5°
Sets 05:47:23 0° 354° (N) 2,405 4.9 -7.2°
